Dewpoint
33 35 35 35 35 35 35 36 38 55 65 66 64 64 63 63 63 63 62 58 57 57 58 57 56 53 50 45 35 28 26 25 25 25 26 27 26 24 25 27 28 26 25
30 31 32 33 34 34 34 35 36 42 59 65 65 64 63 63 63 62 62 60 57 56 56 56 54 51 47 39 32 29 26 25 26 25 25 23 23 24 23 26 24 24 24
26 27 29 30 31 32 33 34 35 38 51 62 64 62 62 61 62 62 61 61 58 56 56 55 53 49 45 41 33 30 30 27 24 25 28 25 26 22 20 23 24 20 22
23 24 26 27 29 29 31 32 34 36 40 58 62 62 61 61 61 62 62 61 59 57 57 55 53 49 46 43 38 37 37 35 29 23 21 20 25 22 18 18 20 18 18
23 28 31 28 29 31 30 31 32 35 38 43 61 62 61 61 60 61 61 60 57 57 57 56 53 48 45 45 42 40 38 38 35 29 23 20 18 16 17 16 17 18 18
30 32 35 38 38 39 39 38 32 31 34 39 48 61 61 60 59 59 60 58 56 56 56 55 52 49 46 45 44 42 39 37 33 29 24 21 20 17 15 15 15 16 15
32 33 34 35 36 36 36 36 38 38 38 38 39 49 59 60 58 58 58 57 55 55 55 54 51 49 47 46 45 42 40 37 32 29 25 22 19 19 17 16 15 13 16
32 35 36 37 36 35 36 37 37 37 40 41 40 41 45 54 58 57 57 57 55 55 55 53 51 49 47 45 43 41 39 34 31 27 23 22 19 18 17 16 15 14 16
32 35 38 39 38 36 39 38 38 39 39 41 43 43 43 45 53 56 56 56 55 54 53 51 49 48 46 42 40 36 31 29 27 23 21 21 22 21 21 20 18 14 11
37 39 40 40 39 39 40 39 39 39 40 45 46 45 46 48 50 53 54 54 52 50 49 48 47 45 42 39 35 30 27 25 24 24 21 22 23 22 23 23 21 20 17
41 42 41 41 41 41 40 39 40 44 46 46 48 48 48 50 52 52 50 49 47 46 46 43 42 40 35 32 28 26 24 23 23 23 23 23 23 22 22 25 24 22 22
42 41 41 41 41 40 41 43 39 40 41 44 46 47 47 48 48 47 46 44 43 43 42 40 36 34 30 26 23 22 23 22 22 24 26 26 26 25 24 23 24 24 23
40 41 41 41 43 40 38 36 36 38 39 42 44 44 45 45 45 44 43 42 41 40 37 33 31 28 26 25 25 26 28 27 27 27 26 26 28 31 32 31 29 26 24
37 35 34 40 40 35 35 36 36 36 37 39 41 42 42 42 41 40 38 36 34 33 31 28 27 26 26 26 27 28 30 31 32 33 32 32 32 32 31 30 28 23 21
31 30 30 36 35 32 33 34 35 35 35 34 34 35 36 34 36 35 34 31 31 30 28 29 30 31 32 33 33 34 34 34 32 32 32 31 30 29 29 27 24 23 22
29 26 32 37 31 30 31 30 30 32 32 32 31 31 32 32 32 32 32 32 33 33 33 33 33 34 36 37 36 33 31 32 32 31 30 29 25 27 25 24 24 24 23
26 26 28 28 28 30 32 32 31 32 32 32 33 33 33 32 32 31 32 32 33 33 34 35 36 36 37 37 36 35 32 31 29 24 19 19 21 23 21 23 24 24 25
26 25 25 25 26 30 32 33 34 34 34 34 34 35 34 34 34 33 33 33 33 33 34 34 35 35 37 36 33 26 22 19 18 19 20 20 22 23 23 23 23 24 24
27 27 28 28 28 30 31 32 33 34 34 34 34 35 35 34 33 32 32 32 33 32 32 32 32 33 34 33 30 25 19 18 19 20 21 23 22 23 23 23 23 25 23
29 30 31 31 31 32 33 34 34 35 34 35 35 35 34 34 33 33 33 33 33 31 32 31 32 33 31 31 30 22 19 18 19 21 21 22 21 23 24 24 24 20 19
32 33 34 33 33 34 34 33 33 33 34 35 35 34 34 33 32 32 32 31 30 29 22 19 18 18 17 19 24 24 20 21 21 21 20 21 24 24 25 22 20 19 20
33 34 34 34 34 33 33 32 31 33 34 34 33 33 33 33 32 30 28 21 15 13 12 12 13 14 16 22 22 22 23 23 22 21 21 23 25 23 21 19 19 20 21
34 35 34 34 34 34 34 32 33 33 33 32 30 30 29 25 20 14 12 10 10 10 11 11 11 11 13 16 22 22 22 22 22 23 24 22 20 17 17 18 20 19 17
34 34 34 33 33 33 33 32 32 30 23 18 17 15 14 12 12 12 12 11 11 11 11 9 8 11 14 16 19 20 21 22 22 21 16 17 15 16 17 16 16 17 17
34 33 33 33 33 33 32 25 22 20 17 17 16 15 13 13 12 11 8 7 8 9 7 9 11 12 14 17 22 22 21 21 20 18 14 13 14 14 15 16 16 17 17
26 28 29 29 28 28 25 19 20 18 16 14 14 14 15 16 17 18 20 21 20 20 19 19 16 15 18 20 21 20 20 18 18 14 12 13 14 14 15 16 16 16 17
Wind_Speed
20 16 19 20 17 15 15 18 20 22 19 18 20 18 23 22 17 19 20 19 19 20 21 17 17 18 20 20 19 10 11 6 9 8 1 1 1 3 6 6 7 6 5
22 19 17 17 18 20 18 17 20 21 20 19 20 17 22 19 23 18 19 20 21 22 21 21 20 18 16 17 20 17 9 4 14 7 4 4 3 3 3 4 8 8 7
23 23 16 16 15 16 20 19 19 21 21 21 17 7 6 4 13 15 18 21 21 21 21 19 19 20 18 22 22 19 18 13 10 5 5 4 8 3 1 3 4 6 7
18 15 17 16 15 18 15 16 17 18 19 18 18 20 21 22 19 21 22 19 23 23 23 22 19 21 19 18 20 17 16 10 12 5 5 0 4 5 4 2 3 4 6
14 19 18 15 15 16 17 11 12 13 16 20 20 20 20 18 13 15 15 15 17 23 24 23 22 20 20 19 21 20 21 16 14 11 6 4 2 2 3 5 6 4 5
22 20 17 16 15 14 15 13 9 11 12 14 19 20 21 20 17 18 19 18 16 16 21 21 23 22 21 22 21 19 20 19 13 12 11 9 7 8 5 4 4 5 3
19 21 22 21 19 18 15 13 11 10 6 5 11 17 20 17 22 22 21 17 17 16 21 23 22 22 23 21 19 18 16 16 15 15 10 6 5 4 6 4 3 5 1
15 17 19 21 21 20 19 15 14 15 11 9 10 11 16 18 18 18 17 19 20 22 18 21 20 21 19 19 18 14 13 14 12 12 9 9 6 7 4 7 4 2 2
17 18 18 20 22 21 23 19 17 17 17 14 11 11 12 16 19 21 20 18 15 16 18 18 18 17 17 15 19 16 15 14 12 13 13 11 9 6 5 5 5 5 3
17 16 15 17 18 20 21 21 18 17 17 18 18 16 14 15 18 17 20 18 13 13 15 16 15 15 17 18 17 17 16 18 13 13 15 10 9 8 5 4 6 0 4
19 17 19 19 19 20 18 19 15 11 14 17 18 17 14 10 10 12 10 11 11 15 16 15 18 19 19 18 19 19 19 20 17 13 15 12 9 9 6 5 2 2 3
14 14 15 16 21 16 11 9 9 10 10 12 13 13 8 3 3 6 9 13 14 14 18 18 18 18 17 18 21 20 18 19 17 14 14 11 8 7 5 4 3 6 8
14 14 17 20 16 16 15 13 8 13 17 17 15 8 5 2 3 7 11 14 16 16 16 19 20 20 21 21 19 20 18 15 14 14 12 11 8 5 0 3 8 9 8
14 15 18 17 11 11 10 10 17 15 10 6 4 7 6 6 9 11 13 14 14 17 18 18 19 21 21 21 20 20 19 16 12 10 9 7 4 3 6 9 11 9 8
16 17 17 14 10 11 11 15 13 11 10 12 13 12 10 12 13 14 16 18 18 17 19 22 21 21 21 18 21 17 16 13 11 8 5 1 3 7 7 6 7 6 7
16 17 19 7 10 12 12 12 13 12 11 12 13 13 14 15 16 16 17 19 20 21 21 20 23 21 17 23 21 17 14 11 9 7 2 4 3 2 1 4 8 7 8
14 16 12 9 11 10 8 11 11 10 10 8 10 13 15 17 17 19 20 17 18 18 22 20 20 23 16 20 20 16 11 11 7 6 6 4 1 4 5 7 9 10 12
10 10 9 8 8 7 8 9 9 10 10 10 9 9 12 16 17 19 19 18 16 17 17 19 18 18 15 18 15 13 11 9 9 6 4 2 3 5 8 9 10 10 10
6 7 7 7 8 9 9 10 11 10 10 10 10 11 12 18 17 20 18 16 16 17 15 15 15 17 14 15 11 8 8 9 7 4 1 2 5 8 11 9 7 8 10
6 6 6 7 8 10 9 12 12 12 13 12 14 13 15 17 19 17 17 15 15 14 12 14 13 14 11 11 9 7 7 6 4 1 3 6 8 9 11 9 5 8 12
6 6 8 7 6 7 9 12 12 12 10 12 13 14 16 18 17 17 15 15 14 13 13 12 10 10 7 7 10 10 7 4 1 4 5 6 9 11 12 13 7 11 13
7 7 8 7 7 7 8 10 11 8 10 13 15 13 14 12 14 15 11 10 9 12 12 14 13 11 11 11 8 6 5 3 2 5 6 8 10 12 13 12 13 13 10
6 6 7 7 7 8 8 11 7 10 12 14 13 13 13 11 9 11 12 11 11 12 10 10 9 6 6 6 7 6 5 6 6 5 6 9 11 12 11 11 11 9 9
7 7 6 6 7 7 8 9 8 9 10 13 13 13 14 13 11 10 10 11 9 9 8 7 6 5 4 3 2 3 5 6 6 4 7 8 9 9 8 8 9 8 8
8 8 8 7 7 7 8 6 7 12 14 14 12 12 12 13 13 12 10 10 6 6 8 6 5 4 4 2 5 8 7 6 8 4 5 7 7 9 10 10 10 9 10
8 10 10 10 8 7 8 8 10 12 15 14 11 11 11 10 11 12 11 11 10 10 8 5 3 2 3 6 7 8 8 9 9 4 5 7 8 9 10 10 12 10 12
Wind_Direction
274 258 258 259 251 254 240 230 229 219 211 205 204 201 216 217 209 210 206 201 199 194 195 198 196 189 191 189 185 163 177 165 161 135 118 163 134 173 187 191 192 189 184
287 276 261 254 251 250 246 238 225 226 213 205 210 209 213 221 218 210 205 206 194 193 196 193 198 190 185 184 182 176 166 156 178 162 128 204 238 224 201 203 200 198 182
298 295 282 271 267 256 249 243 233 225 220 209 208 182 172 181 209 208 212 208 197 193 196 195 188 188 188 195 189 185 179 173 194 211 155 158 222 173 190 230 220 189 185
326 320 313 296 280 267 259 245 235 226 226 216 208 208 215 216 217 213 214 206 195 191 191 193 192 189 189 190 190 178 174 161 183 203 216 163 145 183 197 229 225 207 197
2 7 3 342 330 323 302 276 261 237 223 215 209 208 216 220 222 215 216 210 201 195 193 192 188 192 188 188 186 184 183 183 180 178 166 175 154 139 152 198 208 234 211
20 20 14 12 3 358 0 353 306 263 236 223 220 215 219 220 213 214 212 203 201 198 195 189 191 190 186 186 188 188 188 189 189 190 178 178 166 196 165 191 184 202 204
11 6 1 354 348 347 342 341 336 316 302 263 240 233 232 228 219 216 213 198 201 202 202 190 191 193 188 184 179 183 182 183 189 180 186 168 161 132 154 173 165 195 271
358 348 343 338 329 327 325 321 323 312 301 277 259 245 243 238 229 224 217 211 206 208 200 196 191 183 180 168 163 166 166 165 166 163 157 137 119 138 186 141 169 171 212
335 329 327 331 325 319 319 313 308 303 302 297 280 266 255 245 237 229 217 218 216 199 187 185 179 175 159 163 155 154 155 146 143 136 132 131 125 114 111 127 140 182 194
328 323 322 323 317 309 299 295 295 291 303 311 310 300 278 250 240 230 224 216 199 169 166 165 159 154 153 157 145 136 133 134 131 132 129 128 120 108 90 101 113 284 188
327 328 326 321 309 298 294 297 306 322 331 326 318 315 305 275 244 225 198 179 155 149 151 148 148 151 147 144 134 131 132 134 133 131 131 120 124 121 107 69 71 215 218
324 315 312 328 338 338 2 26 10 2 345 338 339 323 317 299 226 173 153 140 145 138 139 140 140 137 134 131 131 130 131 133 132 124 116 116 112 106 117 135 254 255 234
330 334 340 349 356 5 2 5 351 18 6 356 351 323 360 58 128 137 136 138 138 138 136 133 132 131 127 123 121 120 116 110 111 115 122 126 128 124 10 257 248 253 258
339 339 343 331 5 12 0 8 23 23 7 326 316 31 50 86 102 101 99 104 113 116 114 112 115 115 111 108 104 101 103 104 101 99 97 109 130 194 225 228 233 237 255
344 340 325 317 360 20 11 27 28 33 37 39 44 45 60 76 85 88 93 94 94 100 106 108 104 104 102 106 107 106 111 113 109 84 79 72 225 233 222 238 255 251 255
337 336 322 347 24 29 27 32 33 37 48 57 56 63 70 71 79 81 86 95 101 103 102 102 102 96 104 116 116 114 113 111 107 99 108 224 171 110 351 317 294 272 275
345 342 352 20 46 40 34 36 34 37 42 60 77 77 79 75 75 82 83 82 89 97 100 99 103 105 110 115 111 108 107 101 121 151 153 146 77 19 347 312 307 305 298
353 357 6 26 50 56 49 52 49 47 46 41 46 67 85 91 89 85 84 79 84 87 91 90 89 92 97 94 92 106 108 126 111 116 103 70 343 326 315 297 286 292 297
353 11 18 20 43 54 59 66 58 57 55 50 54 51 72 81 83 82 78 80 83 79 79 89 97 97 93 102 104 122 116 90 91 97 67 329 315 304 304 301 296 298 297
18 32 33 45 48 55 65 69 64 62 63 59 65 72 76 84 83 84 83 85 86 96 93 87 87 106 112 126 149 135 106 91 90 57 326 321 315 309 303 324 325 311 301
44 50 57 54 51 65 85 81 74 66 70 73 70 72 75 80 82 84 90 93 92 95 99 103 96 104 106 92 84 95 81 73 64 317 317 307 315 319 328 321 337 304 296
68 65 69 56 49 70 90 91 83 71 78 86 83 73 75 83 87 92 94 103 119 112 107 102 84 67 53 61 63 58 58 38 316 309 316 320 329 338 326 323 308 308 336
93 76 89 84 67 70 91 95 87 90 83 83 85 90 93 96 104 108 107 102 101 103 100 99 96 79 54 51 47 38 14 354 355 346 345 356 346 335 331 320 331 340 333
121 113 103 96 90 88 93 94 102 106 103 102 102 102 102 98 95 97 102 104 104 106 111 109 100 84 65 60 25 10 350 0 8 40 15 354 348 342 339 342 338 333 324
140 132 126 120 116 117 115 109 123 123 115 110 108 103 100 98 92 81 87 89 83 114 111 102 103 74 50 0 14 5 358 21 347 47 11 354 349 348 348 343 334 326 319
156 144 138 132 131 134 138 129 136 135 128 121 117 114 110 104 100 98 85 75 85 89 94 121 87 59 23 13 7 1 6 359 357 20 348 340 345 343 336 329 322 316 312